Change the Weather History Date:

Friday, February 14, 2014

  Actual Average Record
Temperature  
Mean Temperature 6 °F -  
Max Temperature 15 °F 25 °F 44 °F (2002)
Min Temperature -4 °F 7 °F -25 °F (1949)
Degree Days  
Heating Degree Days 60    
Moisture  
Dew Point -3 °F    
Average Humidity 65    
Maximum Humidity 72    
Minimum Humidity 53    
Precipitation  
Precipitation 0.00 in - - ()
Sea Level Pressure  
Sea Level Pressure 29.89 in    
Wind  
Wind Speed 5 mph (WNW)    
Max Wind Speed 12 mph    
Max Gust Speed -    
Visibility 10 miles    
Events Snow    
Averages and records for this station are not official NWS values.
T = Trace of Precipitation, MM = Missing Value Source: NWS Daily Summary

Daily Weather History Graph

Daily Weather History Graph

Search for Another Location

Airport or City:

Trip Planner

Search our weather history database for the weather conditions in past years. The results will help you decide how hot, cold, wet, or windy it might be!

Date:

Astronomy

Feb. 14, 2014 Rise Set
Actual Time 7:16 AM CST 5:38 PM CST
Civil Twilight 6:45 AM CST 6:09 PM CST
Nautical Twilight 6:11 AM CST 6:44 PM CST
Astronomical Twilight 5:36 AM CST 7:18 PM CST
Moon 5:45 PM CST (2/14) 6:42 AM CST (2/14)
Length of Visible Light 11h 23m
Length of Day
10h 22m
Full, 100% of the Moon is Illuminated
Feb 14
Full
Feb 14
Full
Feb 22
Last Quarter
Mar 1
New
Mar 8
First Quarter

Hourly Weather History & Observations

Time (CST) Temp. Windchill Dew Point Humidity Pressure Visibility Wind Dir Wind Speed Gust Speed Precip Events Conditions
12:15 AM 5.0 °F -2.1 °F -2.2 °F 72% 29.71 in 10.0 mi West 3.5 mph - N/A Snow Light Snow
12:36 AM 5.0 °F -4.1 °F -2.2 °F 72% 29.70 in 10.0 mi West 4.6 mph - N/A Snow Light Snow
12:55 AM 5.0 °F -2.1 °F -2.2 °F 72% 29.71 in 10.0 mi West 3.5 mph - N/A Snow Light Snow
1:15 AM 5.0 °F -4.1 °F -2.2 °F 72% 29.72 in 10.0 mi West 4.6 mph - N/A Snow Light Snow
1:36 AM 5.0 °F -2.1 °F -2.2 °F 72% 29.73 in 10.0 mi West 3.5 mph - N/A   Scattered Clouds
1:55 AM 3.2 °F -9.1 °F -4.0 °F 72% 29.73 in 10.0 mi West 6.9 mph - N/A Snow Light Snow
2:15 AM 3.2 °F -7.8 °F -4.0 °F 72% 29.73 in 10.0 mi WNW 5.8 mph - N/A Snow Light Snow
2:36 AM 3.2 °F -7.8 °F -4.0 °F 72% 29.74 in 10.0 mi WNW 5.8 mph - N/A Snow Light Snow
2:55 AM 3.2 °F -7.8 °F -4.0 °F 72% 29.75 in 10.0 mi WNW 5.8 mph - N/A Snow Light Snow
3:15 AM 3.2 °F -6.2 °F -5.8 °F 66% 29.75 in 10.0 mi NW 4.6 mph - N/A Snow Light Snow
3:35 AM 1.4 °F -8.3 °F -5.8 °F 72% 29.75 in 10.0 mi NW 4.6 mph - N/A Snow Light Snow
3:55 AM 1.4 °F -6.2 °F -5.8 °F 72% 29.75 in 7.0 mi NNW 3.5 mph - N/A Snow Light Snow
4:15 AM 1.4 °F -6.2 °F -5.8 °F 72% 29.76 in 10.0 mi NW 3.5 mph - N/A Snow Light Snow
4:36 AM -0.4 °F - -7.6 °F 72% 29.76 in 10.0 mi Calm Calm - N/A Snow Light Snow
4:55 AM -0.4 °F -10.4 °F -7.6 °F 72% 29.77 in 10.0 mi NW 4.6 mph - N/A   Clear
5:15 AM -2.2 °F -12.5 °F -9.4 °F 71% 29.78 in 10.0 mi NW 4.6 mph - N/A   Clear
5:36 AM -0.4 °F - -7.6 °F 72% 29.79 in 10.0 mi Calm Calm - N/A   Clear
5:55 AM -2.2 °F - -9.4 °F 71% 29.80 in 10.0 mi Calm Calm - N/A Snow Light Snow
6:15 AM -2.2 °F - -9.4 °F 71% 29.81 in 10.0 mi Calm Calm - N/A Snow Light Snow
6:36 AM -2.2 °F - -9.4 °F 71% 29.82 in 10.0 mi Calm Calm - N/A   Clear
6:55 AM -4.0 °F -12.4 °F -11.2 °F 71% 29.83 in 7.0 mi NW 3.5 mph - N/A   Clear
7:16 AM -2.2 °F -12.5 °F -9.4 °F 71% 29.84 in 10.0 mi NW 4.6 mph - N/A   Clear
7:35 AM 1.4 °F -8.3 °F -5.8 °F 72% 29.85 in 10.0 mi NW 4.6 mph - N/A   Clear
7:55 AM 3.2 °F -9.1 °F -5.8 °F 66% 29.86 in 10.0 mi NNW 6.9 mph - N/A   Clear
8:16 AM 3.2 °F -10.3 °F -5.8 °F 66% 29.87 in 10.0 mi NW 8.1 mph - N/A   Clear
8:35 AM 5.0 °F -10.0 °F -5.8 °F 61% 29.88 in 10.0 mi NNW 10.4 mph - N/A   Clear
8:55 AM 5.0 °F -9.1 °F -5.8 °F 61% 29.89 in 10.0 mi NNW 9.2 mph - N/A   Clear
9:15 AM 6.8 °F -8.6 °F -5.8 °F 56% 29.89 in 10.0 mi NNW 11.5 mph - N/A   Clear
9:36 AM 6.8 °F -6.9 °F -4.0 °F 61% 29.91 in 10.0 mi NNW 9.2 mph - N/A   Clear
9:55 AM 6.8 °F -5.9 °F -4.0 °F 61% 29.92 in 10.0 mi NW 8.1 mph - N/A   Clear
10:16 AM 6.8 °F -4.8 °F -4.0 °F 61% 29.92 in 10.0 mi NNW 6.9 mph - N/A   Clear
10:35 AM 6.8 °F -5.9 °F -2.2 °F 67% 29.93 in 10.0 mi NW 8.1 mph - N/A   Clear
10:55 AM 8.6 °F -4.7 °F -2.2 °F 62% 29.94 in 10.0 mi NW 9.2 mph - N/A   Clear
11:16 AM 8.6 °F -2.6 °F -2.2 °F 62% 29.93 in 10.0 mi NNW 6.9 mph - N/A   Clear
11:35 AM 10.4 °F 0.8 °F -2.2 °F 57% 29.93 in 10.0 mi NW 5.8 mph - N/A   Clear
11:55 AM 10.4 °F -2.4 °F -0.4 °F 62% 29.93 in 10.0 mi WNW 9.2 mph - N/A   Clear
12:16 PM 10.4 °F -3.3 °F -0.4 °F 62% 29.94 in 10.0 mi WNW 10.4 mph - N/A   Clear
12:35 PM 12.2 °F -0.2 °F -0.4 °F 57% 29.93 in 10.0 mi WNW 9.2 mph - N/A   Clear
12:56 PM 12.2 °F 1.7 °F -0.4 °F 57% 29.93 in 10.0 mi WNW 6.9 mph - N/A   Clear
1:15 PM 12.2 °F 0.7 °F -0.4 °F 57% 29.92 in 10.0 mi West 8.1 mph - N/A   Clear
1:35 PM 12.2 °F -1.0 °F 1.4 °F 62% 29.93 in 10.0 mi NW 10.4 mph - N/A   Clear
1:56 PM 14.0 °F 3.9 °F 1.4 °F 57% 29.93 in 10.0 mi WNW 6.9 mph - N/A   Clear
2:15 PM 15.8 °F 3.4 °F 1.4 °F 53% 29.93 in 10.0 mi NW 10.4 mph - N/A   Clear
2:35 PM 15.8 °F 4.2 °F 1.4 °F 53% 29.94 in 10.0 mi WNW 9.2 mph - N/A   Clear
2:56 PM 15.8 °F 5.1 °F 1.4 °F 53% 29.94 in 10.0 mi West 8.1 mph - N/A   Clear
3:15 PM 15.8 °F 4.2 °F 1.4 °F 53% 29.95 in 10.0 mi West 9.2 mph - N/A   Clear
3:36 PM 15.8 °F 6.1 °F 1.4 °F 53% 29.95 in 10.0 mi West 6.9 mph - N/A   Clear
3:55 PM 15.8 °F 8.6 °F 3.2 °F 58% 29.95 in 10.0 mi West 4.6 mph - N/A   Clear
4:16 PM 15.8 °F 8.6 °F 3.2 °F 58% 29.95 in 10.0 mi NW 4.6 mph - N/A   Clear
4:36 PM 15.8 °F 6.1 °F 3.2 °F 58% 29.96 in 10.0 mi WNW 6.9 mph - N/A   Clear
4:55 PM 15.8 °F 8.6 °F 3.2 °F 58% 29.96 in 10.0 mi West 4.6 mph - N/A   Clear
5:15 PM 15.8 °F 7.2 °F 3.2 °F 58% 29.97 in 10.0 mi West 5.8 mph - N/A   Clear
5:35 PM 15.8 °F 8.6 °F 1.4 °F 53% 29.98 in 10.0 mi West 4.6 mph - N/A   Clear
5:55 PM 15.8 °F 8.6 °F 1.4 °F 53% 29.98 in 10.0 mi West 4.6 mph - N/A   Clear
6:16 PM 12.2 °F 6.1 °F 1.4 °F 62% 29.98 in 10.0 mi WNW 3.5 mph - N/A   Clear
6:35 PM 10.4 °F - -0.4 °F 62% 29.97 in 10.0 mi Calm Calm - N/A   Clear
6:55 PM 6.8 °F - -2.2 °F 67% 29.97 in 10.0 mi Calm Calm - N/A   Clear
7:16 PM 6.8 °F - -4.0 °F 61% 29.97 in 10.0 mi Calm Calm - N/A   Clear
7:35 PM 6.8 °F - -2.2 °F 67% 29.97 in 10.0 mi Calm Calm - N/A   Clear
7:55 PM 6.8 °F - -2.2 °F 67% 29.96 in 10.0 mi Calm Calm - N/A   Clear
8:15 PM 6.8 °F -0.1 °F -2.2 °F 67% 29.97 in 10.0 mi West 3.5 mph - N/A   Clear
8:35 PM 6.8 °F - -2.2 °F 67% 29.98 in 10.0 mi Calm Calm - N/A   Clear
8:56 PM 3.2 °F -4.2 °F -5.8 °F 66% 29.99 in 10.0 mi West 3.5 mph - N/A   Clear
9:15 PM 6.8 °F - -2.2 °F 67% 29.99 in 10.0 mi Calm Calm - N/A   Clear
9:36 PM 6.8 °F - -2.2 °F 67% 29.99 in 10.0 mi Calm Calm - N/A   Clear
9:56 PM 5.0 °F - -4.0 °F 66% 29.99 in 10.0 mi Calm Calm - N/A   Clear
10:15 PM 5.0 °F - -2.2 °F 72% 29.99 in 10.0 mi Calm Calm - N/A   Clear
10:35 PM -0.4 °F - -7.6 °F 72% 29.99 in 10.0 mi Calm Calm - N/A   Clear
10:56 PM -0.4 °F - -7.6 °F 72% 29.99 in 10.0 mi Calm Calm - N/A   Clear
11:15 PM -2.2 °F - -9.4 °F 71% 29.99 in 10.0 mi Calm Calm - N/A   Clear
11:35 PM 1.4 °F - -7.6 °F 66% 29.98 in 10.0 mi Calm Calm - N/A   Clear
11:56 PM -2.2 °F - -9.4 °F 71% 29.98 in 10.0 mi Calm Calm - N/A   Clear